H-2A R/B, 41037

Orbit data source: Space-Track

H-2A R/B, 41037 is space debris in HEO originally from a launch on Tue, 24 Nov 2015 UTC launched from the Tanegashima Space Center (TNSTA). Debris objects in space refer to the collection of defunct objects orbiting the Earth. Examples of debris include non-operational satellites, rocket bodies, and fragments generated from explosions, collisions, or faulty payload assembly.

Loading next visibility...
Identifier
41037, 2015-068B
Orbit
HEO
Country
Flag of JPJP / JPN
Related business
Manufacturer
MHI Tobishima
Mission
Spacecraft
Bus & Motor
H-2A STAGE 2, Unknown motor
Mass
4,000 kg wet, 4,000 kg dry
Launch date (UTC)
2015-11-24 (11 years ago)
Launch vehicle
Unknown
Launch site
Tanegashima Space Center (TNSTA)
Object type
Payload
Rocket body
Debris
Shape & HBR
Cyl, 4.6 m
Radar Cross Section
35.186 m², Large (>1 m²)

Expand to show TLE details & history
Last TLE update: 4 days ago

TLE from 4 days ago
0 H-2A R/B
1 41037U 15068B   26159.93192503  .00000009  00000-0  00000+0 0  9998
2 41037  19.4111  75.0153 6453263 282.3519  16.8002  2.12566138 81879
Epoch: 2026-06-08T22:21Z
TLE epoch observation values (Epoch: 2026-06-08T22:21:58.322Z)
Latitude
0.00033°
Longitude
-157.87598°
Altitude
6,741.884 km
Speed
6.72 km/s
True Right ascension
04h 59m 42s
True Declination
0° 00' 01"
Sunlit
Object was in daylight at epoch
Visualization orbit readout
Latitude
Unknown
Longitude
Unknown
Altitude
Unknown
Speed
Unknown
Apparent Right ascension
Unknown
Apparent Declination
Unknown
Sunlit
N/A
Visualization observer readout
Local Sidereal Time
12:42:51
Azimuth
Unknown
Elevation
Unknown
Doppler factor
Unknown
Orbital elements
Apogee altitude
35,666.725 km
Perigee altitude
2,685.236 km
Semi-major axis
25,554.118 km
Eccentricity
0.64533
Inclination
19.4111°
RAAN
75.0153°
Arg. of periapsis
282.3519°
True anomaly
77.85495°
Mean anomaly
16.8002°
Eccentric anomaly
41.11227°
Mean motion
0.53131 °/min
Orbital period
677.56 mins
BSTAR
0
Loading maneuver chart data...
Computing Atmospheric mass density...
Loading historical data...
Loading historical data...
Loading historical data...
Loading historical data...
Loading historical data...
Loading historical data...
Loading historical data...
Other satellites on launch #68 in the year 2015 (2015-11-24 UTC)

Documentation

Showing up to 5 results
|